TimeCST,TemperatureF,Dew PointF,Humidity,Sea Level PressureIn,VisibilityMPH,Wind Direction,Wind SpeedMPH,Gust SpeedMPH,PrecipitationIn,Events,Conditions,WindDirDegrees,DateUTC
12:53 AM,46.0,43.0,89,30.01,10.0,South,6.9,-,N/A,,Clear,170,2013-01-11 06:53:00
1:53 AM,48.0,43.0,83,30.00,10.0,South,8.1,-,N/A,,Clear,170,2013-01-11 07:53:00
2:53 AM,48.0,43.0,83,30.00,10.0,South,8.1,-,N/A,,Clear,190,2013-01-11 08:53:00
3:53 AM,46.9,43.0,86,29.99,10.0,South,8.1,-,N/A,,Clear,180,2013-01-11 09:53:00
4:53 AM,46.9,43.0,86,29.97,10.0,South,8.1,-,N/A,,Clear,180,2013-01-11 10:53:00
5:53 AM,46.9,43.0,86,29.96,10.0,South,9.2,-,N/A,,Clear,180,2013-01-11 11:53:00
6:53 AM,46.0,43.0,89,29.97,10.0,South,8.1,-,N/A,,Clear,180,2013-01-11 12:53:00
7:53 AM,48.0,44.1,86,29.99,10.0,South,9.2,-,N/A,,Clear,180,2013-01-11 13:53:00
8:53 AM,52.0,46.0,80,29.99,10.0,South,10.4,-,N/A,,Clear,180,2013-01-11 14:53:00
9:53 AM,57.9,46.9,67,29.98,10.0,South,12.7,-,N/A,,Clear,190,2013-01-11 15:53:00
10:53 AM,63.0,48.0,58,29.97,10.0,SSW,11.5,-,N/A,,Clear,200,2013-01-11 16:53:00
11:53 AM,68.0,46.9,47,29.94,10.0,South,10.4,-,N/A,,Clear,190,2013-01-11 17:53:00
12:53 PM,72.0,45.0,38,29.90,10.0,South,12.7,-,N/A,,Clear,190,2013-01-11 18:53:00
1:53 PM,73.0,45.0,37,29.87,10.0,SSW,16.1,19.6,N/A,,Clear,200,2013-01-11 19:53:00
2:53 PM,73.0,44.1,35,29.85,10.0,South,10.4,21.9,N/A,,Clear,180,2013-01-11 20:53:00
3:53 PM,73.0,48.0,41,29.86,10.0,SSW,16.1,26.5,N/A,,Clear,200,2013-01-11 21:53:00
4:53 PM,71.1,50.0,47,29.84,10.0,South,13.8,-,N/A,,Clear,180,2013-01-11 22:53:00
5:53 PM,68.0,51.1,55,29.84,10.0,SSE,11.5,-,N/A,,Overcast,160,2013-01-11 23:53:00
6:53 PM,68.0,51.1,55,29.86,10.0,South,11.5,-,N/A,,Overcast,170,2013-01-12 00:53:00
7:53 PM,66.0,52.0,60,29.86,10.0,SSE,11.5,-,N/A,,Overcast,160,2013-01-12 01:53:00
8:53 PM,64.9,52.0,63,29.86,10.0,SSE,11.5,-,N/A,,Scattered Clouds,160,2013-01-12 02:53:00
9:49 PM,64.4,53.6,68,29.88,10.0,South,13.8,-,N/A,,Mostly Cloudy,170,2013-01-12 03:49:00
9:53 PM,64.9,54.0,68,29.87,10.0,South,11.5,-,N/A,,Mostly Cloudy,170,2013-01-12 03:53:00
10:40 PM,64.4,57.2,77,29.89,10.0,South,9.2,-,N/A,,Mostly Cloudy,170,2013-01-12 04:40:00
10:53 PM,64.0,57.9,80,29.88,10.0,South,11.5,-,N/A,,Mostly Cloudy,180,2013-01-12 04:53:00
11:09 PM,64.4,59.0,83,29.89,10.0,South,13.8,-,N/A,,Mostly Cloudy,180,2013-01-12 05:09:00
11:53 PM,64.9,60.1,84,29.88,10.0,South,9.2,-,N/A,,Overcast,190,2013-01-12 05:53:00